Vorticity
4 4 5 5 8 10 13 11 9 9 3 4 6 4 4 3 5 9 12 27 13 10 11 15 15 12 11 17 7 3 22 9 14 15 7 12 12 13 5 7 9 0 12 5 12 6 20
4 4 4 5 7 8 10 14 12 11 5 3 6 2 4 2 6 3 10 26 19 16 14 9 15 13 14 13 22 -14 8 14 18 15 5 17 12 5 9 15 -0 23 13 7 15 3 3
5 6 6 5 6 7 7 12 13 11 10 4 4 1 4 1 7 1 8 18 28 19 10 20 10 13 14 10 13 13 0 17 12 5 11 15 15 8 24 16 6 22 4 10 4 10 -1
6 7 7 6 5 8 7 9 12 13 12 6 4 4 3 6 1 -8 2 26 16 23 3 28 8 12 5 7 7 8 9 16 12 5 9 13 15 13 22 -3 22 -7 -2 12 12 5 15
5 6 7 7 5 7 11 9 10 12 13 14 7 6 1 3 3 4 -4 25 14 13 34 30 16 9 12 6 4 4 12 15 9 9 10 13 14 7 10 -1 18 -0 25 2 29 4 5
4 5 5 7 7 7 10 10 12 10 10 13 15 11 7 2 2 4 4 7 13 15 29 2 7 1 19 10 3 4 16 11 9 11 12 11 12 4 8 1 9 8 2 21 4 10 5
5 5 5 5 6 8 9 14 10 10 9 10 11 15 12 6 3 2 4 -5 15 8 8 18 15 11 11 12 14 14 17 10 7 9 11 10 5 2 5 7 6 12 -3 17 7 23 3
5 5 5 5 5 7 9 10 14 11 9 8 9 12 17 12 8 6 7 12 -14 24 15 17 14 12 9 9 21 11 2 5 9 11 11 10 11 5 11 13 -7 7 12 2 22 -0 11
6 6 6 6 5 5 6 8 16 11 10 9 9 11 14 15 12 9 10 13 1 -11 2 -1 -2 27 15 2 16 14 22 17 14 12 3 10 22 -1 13 14 5 14 11 5 7 12 12
6 7 6 6 6 5 5 7 8 14 15 14 10 10 12 15 18 11 10 12 12 2 -0 8 8 -5 8 4 9 3 13 10 13 15 5 15 26 4 11 12 -1 10 18 14 14 22 2
7 7 8 7 7 8 6 5 6 8 14 9 12 12 8 14 14 15 12 10 11 12 2 1 5 19 3 21 4 18 8 13 11 9 -3 13 13 12 9 17 7 19 13 4 -2 -3 3
7 7 6 6 6 6 8 7 6 6 9 13 15 16 12 6 12 14 17 11 10 9 5 3 13 5 4 7 21 6 13 11 10 3 2 24 7 9 7 2 1 27 19 10 13 9 6
7 6 5 5 5 5 6 6 8 9 7 4 10 11 24 10 6 8 9 11 8 15 6 4 13 5 15 15 2 1 15 12 -4 1 17 17 3 8 9 10 7 12 5 4 7 6 9
5 5 5 7 8 7 6 7 4 6 14 9 5 7 13 21 12 11 11 10 17 14 23 13 3 13 4 2 11 11 12 17 -3 -8 18 8 26 -6 14 3 12 5 -29 3 3 11 15
4 4 5 5 5 6 5 7 6 5 6 12 8 11 10 9 15 14 14 12 13 6 11 9 6 4 9 -1 11 6 17 -4 23 -8 2 12 0 26 8 5 2 19 5 -2 9 11 9
3 4 4 5 5 4 5 5 5 4 6 8 13 5 9 16 15 12 10 17 14 8 3 5 11 16 11 6 1 7 11 22 2 7 9 12 5 33 -1 8 6 6 8 12 7 5 5
4 4 4 4 4 5 5 4 4 5 5 5 8 10 12 2 14 12 9 10 6 9 12 15 12 13 9 9 4 8 9 7 12 -5 13 1 5 31 0 18 9 4 16 -6 4 -3 11
4 3 4 4 4 4 4 5 5 6 5 6 4 15 3 18 13 14 12 13 9 10 12 10 14 11 12 15 14 12 1 7 19 11 8 8 7 9 19 4 15 12 4 8 -2 19 4
5 4 4 3 3 3 4 4 5 6 6 5 6 1 0 9 10 9 10 9 11 11 9 9 13 11 11 10 9 15 7 13 11 13 9 15 10 10 19 29 7 13 10 1 -5 -9 10
5 4 4 3 3 3 4 4 5 5 6 7 7 5 9 2 8 10 11 8 11 8 5 9 11 14 10 11 13 2 5 15 15 15 6 7 8 -10 -5 1 16 27 24 11 4 5 7
5 5 4 4 4 3 3 3 5 5 5 6 7 4 3 -1 4 2 6 9 6 9 6 15 9 8 11 13 6 17 15 12 11 10 12 10 2 6 11 11 4 -3 -4 10 25 10 -26
6 5 4 4 3 3 4 4 3 5 4 6 6 6 7 8 1 1 1 3 3 5 17 4 9 8 8 8 8 10 13 8 16 14 12 11 2 11 10 9 11 9 10 8 7 5 2
6 6 5 4 4 4 3 3 4 4 4 5 5 6 6 3 3 5 4 1 2 4 7 9 7 8 6 11 10 10 8 6 3 4 5 9 6 11 18 18 15 41 31 21 10 9 8
6 6 6 6 5 4 4 5 4 4 4 4 5 7 6 5 7 5 6 4 2 2 4 7 13 8 6 7 7 8 9 10 9 7 6 -0 7 11 5 8 15 12 15 14 12 16 23
6 5 6 5 5 5 4 5 6 4 4 5 5 7 6 5 5 7 6 8 7 1 1 7 4 6 10 10 12 27 14 35 32 29 14 8 7 -1 -1 16 -17 -1 -5 4 9 7 5
6 6 6 6 5 5 5 5 5 5 4 6 7 5 7 4 1 8 8 6 4 6 3 1 4 4 9 7 11 13 2 -5 22 15 22 37 20 -15 15 5 2 4 19 19 13 23 16
7 7 7 7 6 7 7 6 5 5 6 6 5 5 5 8 8 5 7 11 5 6 1 10 8 5 5 9 11 17 13 -4 16 5 13 18 20 7 7 -1 19 14 5 1 23 14 6
7 7 7 8 7 7 7 6 7 7 6 7 5 7 5 5 7 9 6 4 6 0 -0 6 19 10 41 18 22 15 18 4 18 -1 4 4 12 17 30 6 18 31 18 5 -0 12 8
5 7 8 7 7 8 8 8 9 7 6 7 7 7 7 6 -2 8 6 6 4 2 8 12 6 -8 -13 -14 -4 14 -7 1 1 0 8 17 7 -9 -8 5 -9 2 10 14 13 1 -8
Height
3152 3150 3148 3145 3142 3139 3135 3132 3129 3128 3125 3122 3119 3115 3110 3105 3100 3095 3088 3083 3081 3079 3079 3079 3080 3082 3085 3087 3089 3089 3089 3091 3094 3097 3101 3105 3109 3114 3120 3124 3130 3135 3140 3145 3150 3155 3157
3151 3149 3148 3145 3142 3138 3134 3131 3128 3127 3124 3122 3119 3115 3111 3106 3101 3095 3089 3082 3079 3078 3077 3077 3079 3081 3083 3086 3086 3088 3088 3090 3093 3096 3100 3103 3107 3112 3117 3121 3128 3132 3138 3142 3148 3151 3153
3152 3149 3147 3144 3141 3138 3134 3131 3127 3125 3124 3122 3118 3115 3111 3107 3102 3096 3089 3083 3079 3077 3076 3075 3078 3080 3082 3085 3085 3088 3089 3089 3092 3096 3099 3102 3106 3111 3113 3119 3124 3129 3136 3140 3143 3147 3151
3153 3150 3147 3144 3141 3137 3134 3130 3127 3124 3122 3120 3118 3114 3111 3108 3104 3098 3091 3085 3081 3078 3076 3074 3077 3080 3082 3084 3085 3087 3088 3089 3093 3095 3099 3101 3105 3110 3113 3117 3123 3128 3133 3136 3139 3143 3148
3153 3151 3148 3145 3142 3137 3133 3130 3127 3124 3122 3119 3117 3113 3111 3108 3105 3100 3095 3088 3085 3080 3077 3077 3079 3081 3084 3085 3087 3088 3089 3090 3093 3095 3098 3101 3105 3109 3114 3117 3122 3125 3128 3133 3136 3140 3145
3154 3152 3149 3146 3143 3138 3134 3129 3126 3123 3121 3118 3115 3112 3110 3108 3105 3102 3098 3093 3088 3084 3081 3083 3084 3088 3086 3087 3087 3089 3089 3091 3093 3095 3099 3102 3105 3109 3112 3116 3117 3121 3126 3130 3134 3137 3141
3154 3152 3150 3147 3144 3140 3136 3130 3126 3123 3120 3118 3114 3111 3108 3107 3105 3103 3101 3097 3094 3091 3087 3088 3088 3087 3088 3088 3089 3090 3091 3092 3094 3097 3099 3101 3105 3107 3112 3116 3119 3123 3127 3129 3131 3135 3139
3153 3152 3150 3148 3145 3141 3137 3133 3127 3123 3120 3116 3114 3111 3108 3106 3105 3103 3102 3099 3096 3095 3093 3092 3091 3091 3090 3090 3091 3091 3093 3095 3096 3098 3100 3104 3105 3109 3111 3115 3119 3121 3125 3128 3129 3133 3137
3154 3152 3150 3148 3145 3142 3139 3135 3130 3125 3120 3117 3113 3110 3108 3106 3105 3104 3102 3101 3098 3097 3096 3096 3095 3093 3092 3093 3093 3093 3094 3095 3097 3099 3101 3104 3107 3109 3111 3115 3118 3119 3123 3125 3127 3130 3133
3154 3153 3151 3148 3146 3143 3140 3136 3132 3127 3122 3118 3114 3111 3108 3106 3105 3103 3102 3101 3099 3098 3100 3101 3098 3098 3097 3095 3096 3096 3096 3099 3099 3101 3103 3105 3107 3108 3110 3114 3117 3118 3120 3123 3126 3129 3131
3153 3152 3151 3148 3147 3144 3141 3137 3133 3129 3125 3120 3115 3112 3108 3105 3105 3103 3102 3099 3099 3100 3101 3104 3101 3099 3098 3098 3099 3098 3099 3100 3101 3103 3106 3106 3106 3108 3110 3114 3116 3117 3119 3122 3124 3126 3128
3153 3152 3150 3149 3146 3144 3141 3138 3135 3130 3127 3122 3118 3114 3110 3107 3105 3105 3102 3101 3101 3103 3103 3104 3103 3101 3101 3100 3100 3100 3101 3102 3103 3105 3105 3105 3106 3108 3111 3113 3115 3116 3118 3121 3123 3125 3127
3153 3151 3149 3148 3147 3145 3142 3139 3136 3132 3128 3124 3120 3116 3112 3109 3107 3104 3103 3103 3102 3101 3106 3105 3104 3103 3103 3103 3103 3103 3103 3104 3104 3106 3105 3106 3107 3109 3112 3113 3114 3115 3116 3121 3125 3125 3120
3152 3151 3149 3148 3146 3144 3142 3140 3137 3134 3130 3125 3122 3118 3114 3111 3108 3106 3104 3104 3104 3105 3104 3104 3103 3105 3104 3104 3104 3104 3104 3105 3106 3106 3106 3106 3110 3109 3110 3112 3113 3114 3114 3114 3115 3117 3116
3151 3150 3149 3148 3146 3145 3143 3140 3137 3134 3131 3127 3124 3120 3116 3113 3110 3108 3106 3105 3106 3107 3107 3106 3106 3105 3105 3105 3105 3104 3105 3106 3106 3106 3108 3107 3108 3108 3109 3110 3113 3112 3113 3114 3113 3114 3115
3148 3148 3147 3147 3146 3145 3143 3141 3138 3135 3132 3129 3125 3123 3118 3115 3112 3110 3109 3107 3107 3106 3106 3106 3106 3105 3105 3104 3105 3104 3104 3105 3106 3106 3107 3107 3108 3106 3107 3109 3110 3110 3112 3114 3112 3113 3112
3146 3146 3145 3144 3143 3143 3142 3140 3138 3136 3133 3130 3127 3124 3121 3118 3115 3113 3111 3110 3108 3107 3106 3106 3104 3104 3105 3105 3104 3103 3104 3104 3104 3105 3105 3107 3108 3107 3107 3106 3107 3109 3109 3110 3111 3110 3106
3143 3144 3144 3143 3142 3140 3140 3138 3137 3135 3133 3131 3129 3125 3123 3119 3118 3114 3112 3110 3109 3108 3106 3105 3104 3104 3103 3104 3104 3104 3103 3103 3103 3104 3104 3105 3105 3104 3104 3103 3104 3105 3106 3108 3109 3108 3107
3139 3140 3140 3140 3140 3138 3137 3136 3135 3134 3132 3131 3129 3127 3124 3121 3119 3115 3113 3112 3110 3108 3107 3106 3105 3104 3103 3103 3103 3102 3102 3102 3102 3102 3103 3103 3102 3102 3102 3104 3102 3101 3102 3104 3106 3106 3105
3134 3135 3136 3137 3137 3136 3135 3134 3132 3132 3130 3129 3128 3126 3125 3122 3119 3117 3114 3112 3111 3109 3107 3106 3105 3104 3103 3102 3102 3101 3101 3100 3099 3100 3101 3102 3100 3099 3099 3098 3097 3097 3098 3100 3102 3102 3100
3130 3130 3132 3132 3133 3132 3131 3130 3130 3129 3128 3127 3125 3124 3122 3122 3120 3117 3115 3113 3111 3109 3108 3106 3105 3104 3103 3102 3101 3100 3099 3099 3098 3098 3098 3099 3098 3097 3096 3095 3095 3095 3095 3095 3094 3096 3096
3123 3125 3126 3127 3127 3128 3127 3127 3126 3126 3125 3125 3123 3122 3121 3119 3118 3117 3115 3113 3111 3109 3108 3106 3105 3104 3102 3101 3101 3100 3099 3098 3097 3096 3095 3095 3095 3093 3092 3091 3090 3088 3089 3088 3088 3088 3087
3116 3118 3120 3121 3122 3122 3123 3123 3122 3122 3122 3120 3120 3118 3117 3116 3115 3114 3114 3111 3109 3108 3107 3105 3104 3102 3101 3100 3098 3097 3095 3094 3094 3094 3093 3093 3092 3091 3088 3087 3086 3083 3079 3079 3079 3078 3081
3108 3110 3112 3114 3115 3115 3116 3117 3117 3117 3116 3116 3115 3115 3113 3111 3111 3110 3109 3109 3108 3106 3105 3103 3101 3100 3099 3097 3095 3093 3092 3091 3089 3088 3088 3089 3089 3089 3087 3086 3084 3073 3072 3072 3072 3071 3072
3100 3102 3104 3106 3108 3108 3109 3109 3110 3110 3110 3109 3109 3109 3108 3106 3106 3106 3105 3103 3103 3102 3101 3100 3098 3097 3094 3093 3091 3089 3087 3085 3082 3081 3082 3083 3085 3086 3085 3081 3074 3072 3070 3070 3069 3069 3069
3090 3092 3095 3097 3098 3100 3100 3101 3101 3103 3103 3103 3102 3101 3100 3100 3100 3099 3098 3098 3097 3096 3095 3095 3094 3092 3090 3088 3087 3085 3085 3084 3081 3078 3077 3078 3080 3083 3079 3080 3072 3066 3065 3064 3064 3065 3065
3079 3082 3084 3087 3088 3089 3091 3091 3092 3093 3095 3095 3095 3094 3092 3090 3093 3092 3091 3091 3091 3090 3089 3087 3086 3086 3085 3084 3082 3080 3078 3078 3077 3074 3074 3074 3074 3073 3074 3073 3066 3062 3062 3062 3065 3065 3060
3068 3069 3072 3075 3077 3079 3080 3081 3082 3083 3083 3085 3086 3085 3084 3081 3083 3084 3083 3083 3083 3082 3082 3081 3081 3078 3077 3078 3076 3075 3072 3070 3069 3068 3068 3070 3070 3068 3067 3068 3062 3056 3057 3059 3058 3056 3057
3056 3057 3059 3061 3063 3066 3067 3068 3070 3072 3072 3073 3075 3075 3074 3072 3072 3073 3073 3074 3074 3074 3074 3071 3072 3072 3071 3070 3070 3069 3067 3065 3065 3064 3064 3064 3063 3063 3063 3057 3054 3053 3053 3053 3053 3054 3054